This is the latest recevied weather packets stored in our database for station/object iz1wiy-2. If no packets are shown the sender has not sent any weather packets the latest 1 day(s).
| Time | Temp. | Humidity | Pressure | Rain* | Wind** | Luminosity | Snow |
|---|---|---|---|---|---|---|---|
| 1778005203 | 18.33° C | 80% | 1011.8 hPa | 0 mm | 1.79 m/s, 224° | - | - |
| 1778004903 | 18.33° C | 80% | 1011.8 hPa | 0 mm | 1.79 m/s, 209° | - | - |
| 1778004603 | 18.33° C | 80% | 1011.9 hPa | 0 mm | 2.24 m/s, 203° | - | - |
| 1778004303 | 18.33° C | 79% | 1011.8 hPa | 0 mm | 2.24 m/s, 201° | - | - |
| 1778004003 | 18.33° C | 79% | 1011.9 hPa | 0 mm | 2.24 m/s, 197° | - | - |
| 1778003703 | 18.33° C | 79% | 1012 hPa | 0 mm | 2.24 m/s, 198° | - | - |
| 1778003403 | 18.33° C | 79% | 1011.9 hPa | 0 mm | 2.24 m/s, 200° | - | - |
| 1778003103 | 18.33° C | 79% | 1011.9 hPa | 0 mm | 2.24 m/s, 202° | - | - |
| 1778002803 | 18.33° C | 80% | 1011.9 hPa | 0 mm | 2.68 m/s, 201° | - | - |
| 1778002503 | 18.33° C | 80% | 1011.9 hPa | 0 mm | 2.68 m/s, 196° | - | - |
| 1778002203 | 18.33° C | 80% | 1012 hPa | 0 mm | 3.13 m/s, 198° | - | - |
| 1778001903 | 18.33° C | 80% | 1011.9 hPa | 0 mm | 3.13 m/s, 201° | - | - |
| 1778001603 | 18.89° C | 80% | 1011.8 hPa | 0 mm | 3.13 m/s, 201° | - | - |
| 1778001303 | 18.89° C | 79% | 1011.9 hPa | 0 mm | 3.13 m/s, 201° | - | - |
| 1778001003 | 18.89° C | 79% | 1011.8 hPa | 0 mm | 3.13 m/s, 203° | - | - |
| 1778000703 | 18.89° C | 79% | 1011.8 hPa | 0 mm | 3.13 m/s, 207° | - | - |
| 1778000403 | 18.89° C | 79% | 1011.6 hPa | 0 mm | 3.13 m/s, 214° | - | - |
| 1778000103 | 18.89° C | 79% | 1011.7 hPa | 0 mm | 3.13 m/s, 218° | - | - |
| 1777999803 | 18.89° C | 80% | 1011.7 hPa | 0 mm | 2.68 m/s, 223° | - | - |
| 1777999503 | 18.89° C | 80% | 1011.7 hPa | 0 mm | 2.68 m/s, 225° | - | - |
| 1777999203 | 18.89° C | 80% | 1011.6 hPa | 0 mm | 3.13 m/s, 229° | - | - |
| 1777998907 | 18.89° C | 80% | 1011.7 hPa | 0 mm | 3.13 m/s, 220° | - | - |
| 1777998303 | 18.89° C | 80% | 1011.8 hPa | 0 mm | 2.68 m/s, 230° | - | - |
| 1777998003 | 18.89° C | 80% | 1011.8 hPa | 0 mm | 2.68 m/s, 227° | - | - |
| 1777997703 | 18.89° C | 80% | 1011.8 hPa | 0 mm | 2.24 m/s, 221° | - | - |
* Rain latest hour (hover to see other rain measurements)
** Current wind speed in m/s (hover to see current wind gust speed)